STARLINK-5016, 56143

Orbit data source: Space-Track

STARLINK-5016, 56143 is a payload satellite owned by SpaceX/Seattle (US) in LEO that was launched on Wed, 29 Mar 2023 UTC via an FALCON 9 launch vehicle from the Air Force Eastern Test Range (AFETR). Payload-class satellites include a variety of spacecraft equipped with specific instruments for various scientific and technological missions. These include communications satellites like Starlink; space stations such as the ISS; scientific satellites like the Hubble; Earth observation satellites from companies like Planet Labs, Umbra, and HawkEye 360; GPS; miniature CubeSats for education and research; and military/defense satellites.

Loading next visibility...
Identifier
56143, 2023-046BD
Orbit
LEO
Country
Flag of USUS
Related business
Manufacturer
SpaceX/Seattle
Mission
Operational Commercial Communications
Bus & Motor
STARLINK, Unknown motor
Mass
305 kg wet, ~290 kg dry
Launch date (UTC)
2023-03-29 (3 years ago)
Launch vehicle
FALCON 9
Launch site
Air Force Eastern Test Range (AFETR)
Object type
Payload
Rocket body
Debris
Shape & HBR
Box + 1 Pan, 10.1 m
Radar Cross Section
11.087 m², Large (>1 m²)

Expand to show TLE details & history
Last TLE update: 2 days ago

TLE from 2 days ago
0 STARLINK-5016
1 56143U 23046BD  26171.39769609  .00021317  00000-0  10588-2 0  9998
2 56143  42.9983 296.6972 0003712 306.2189  53.8316 15.17286578177796
Epoch: 2026-06-20T09:32Z
TLE epoch observation values (Epoch: 2026-06-20T09:32:40.942Z)
Latitude
0.00004°
Longitude
-115.08625°
Altitude
512.313 km
Speed
7.61 km/s
True Right ascension
19h 46m 47s
True Declination
0° 00' 00"
Sunlit
Object was in full shadow at epoch
Visualization orbit readout
Latitude
Unknown
Longitude
Unknown
Altitude
Unknown
Speed
Unknown
Apparent Right ascension
Unknown
Apparent Declination
Unknown
Sunlit
N/A
Visualization observer readout
Local Sidereal Time
21:32:12
Azimuth
Unknown
Elevation
Unknown
Doppler factor
Unknown
Orbital elements
Apogee altitude
518.541 km
Perigee altitude
513.423 km
Semi-major axis
6,894.119 km
Eccentricity
0.00037
Inclination
42.9983°
RAAN
296.6972°
Arg. of periapsis
306.2189°
True anomaly
53.86595°
Mean anomaly
53.8316°
Eccentric anomaly
53.84877°
Mean motion
3.79162 °/min
Orbital period
94.95 mins
BSTAR
0.0010588
Loading maneuver chart data...
Computing Atmospheric mass density...
Loading historical data...
Loading historical data...
Loading historical data...
Loading historical data...
Loading historical data...
Loading historical data...
Loading historical data...

Documentation

Showing up to 5 results
|